Regional Weather Roundup
Issued by NWS

Home | Current Version | Previous Version | Text Only | Print | Product List | Glossary On
Versions: 1 2 3 4 5 6 7 8 9 10 11 12 13 14 15 16 17 18 19 20 21 22 23 24 25 26 27 28 29 30 31 32 33 34 35 36 37 38 39 40 41 42 43 44 45 46 47 48 49 50
000
ASUS44 KOUN 210710
RWROK

WEATHER ROUNDUP FOR OKLAHOMA
NATIONAL WEATHER SERVICE NORMAN OK
200 AM CDT FRI JUL 21 2017

NOTE: "FAIR" INDICATES FEW OR NO CLOUDS BELOW 12,000 FEET WITH NO
      SIGNIFICANT WEATHER AND/OR OBSTRUCTIONS TO VISIBILITY.

OKZ001>007-009>012-014-015-017-210800-
NORTHWEST OKLAHOMA AND THE PANHANDLE

CITY           SKY/WX    TMP DP  RH WIND       PRES   REMARKS
GAGE           CLEAR     82  63  52 S18       30.00S
GUYMON         CLEAR     79  56  45 S14       30.00F
ENID/WOODRING  CLEAR     82  70  65 S9        29.97S
$$

OKZ016-021>023-033>039-044-045-210800-
SOUTHWEST OKLAHOMA

CITY           SKY/WX    TMP DP  RH WIND       PRES   REMARKS
LAWTON/REGL    CLEAR     82  69  64 S9        30.00S
FREDERICK      CLEAR     84  65  52 S14       29.97S
CLINTON        CLEAR     83  64  52 S17G26    30.03S
HOBART         CLEAR     84  65  52 S18       30.01S
ALTUS AFB      PTCLDY    82  64  55 SE7       29.99F
$$

OKZ018>020-024>031-210800-
CENTRAL OKLAHOMA

CITY           SKY/WX    TMP DP  RH WIND       PRES   REMARKS
OKLAHOMA CITY  PTCLDY    81  68  64 S9        30.01F
OKC/WILEY POST CLEAR     84  68  58 S14       30.00F
OKC/TINKER AFB CLEAR     82  69  66 S13       30.00F
STILLWATER     CLEAR     83  69  62 S9        29.98F
GUTHRIE        CLEAR     83  69  62 S13       29.98F
$$

OKZ008-013-054>072-210800-
NORTHEAST OKLAHOMA

CITY           SKY/WX    TMP DP  RH WIND       PRES   REMARKS
TULSA          CLEAR     85  73  67 S12       29.96F HX  91
TULSA/JONES    CLEAR     82  72  71 S5        29.98F
PONCA CITY     CLEAR     85  69  58 S8        29.97S
BARTLESVILLE   CLEAR     80  71  74 S3        29.99S
MUSKOGEE       CLEAR     77  74  90 S6        30.00F
$$

OKZ032-040>043-046>053-073>077-210800-
SOUTH CENTRAL/SOUTHEAST OKLAHOMA

CITY           SKY/WX    TMP DP  RH WIND       PRES   REMARKS
ARDMORE/DWNTWN CLEAR     81  66  61 SW3       30.01F
MCALESTER      PTCLDY    82  73  74 S3        30.02F
$$





USA.gov is the U.S. government's official web portal to all federal, state and local government web resources and services.